Time,TemperatureF,DewpointF,PressureIn,WindDirection,WindDirectionDegrees,WindSpeedMPH,WindSpeedGustMPH,Humidity,HourlyPrecipIn,Conditions,Clouds,dailyrainin,SoftwareType,DateUTC
2013-09-03 00:01:00,65.0,61.0,29.42,SE,135,2.0,4.7,87,0.00,,,0.00,WUHU216HW,2013-09-03 04:01:00,
2013-09-03 00:06:00,65.0,61.0,29.42,SE,135,3.4,4.7,87,0.00,,,0.00,WUHU216HW,2013-09-03 04:06:00,
2013-09-03 00:11:00,64.8,60.8,29.42,SSE,158,0.4,4.7,87,0.00,,,0.00,WUHU216HW,2013-09-03 04:11:00,
2013-09-03 00:16:00,64.8,60.8,29.42,SSE,158,0.9,3.4,87,0.00,,,0.00,WUHU216HW,2013-09-03 04:16:00,
2013-09-03 00:21:00,64.8,60.8,29.42,SSE,158,2.5,3.4,87,0.00,,,0.00,WUHU216HW,2013-09-03 04:21:00,
2013-09-03 00:26:00,64.6,60.7,29.42,SSW,203,4.3,4.7,87,0.00,,,0.00,WUHU216HW,2013-09-03 04:26:00,
2013-09-03 00:31:00,64.6,60.7,29.42,SSW,203,4.0,5.4,87,0.00,,,0.00,WUHU216HW,2013-09-03 04:31:00,
2013-09-03 00:36:00,64.6,60.7,29.42,SW,225,3.6,5.4,87,0.00,,,0.00,WUHU216HW,2013-09-03 04:36:00,
2013-09-03 00:41:00,64.6,60.7,29.43,SSW,203,4.0,5.4,87,0.00,,,0.00,WUHU216HW,2013-09-03 04:41:00,
2013-09-03 00:46:00,64.6,60.7,29.43,South,180,4.5,6.5,87,0.00,,,0.00,WUHU216HW,2013-09-03 04:46:00,
2013-09-03 00:51:00,64.6,60.7,29.43,SE,135,2.9,6.5,87,0.00,,,0.00,WUHU216HW,2013-09-03 04:51:00,
2013-09-03 00:56:00,64.6,60.7,29.42,SSW,203,4.0,6.0,87,0.00,,,0.00,WUHU216HW,2013-09-03 04:56:00,
2013-09-03 01:01:00,64.6,60.7,29.42,South,180,3.6,5.4,87,0.00,,,0.00,WUHU216HW,2013-09-03 05:01:00,
2013-09-03 01:06:00,64.6,60.7,29.42,SE,135,2.5,4.7,87,0.00,,,0.00,WUHU216HW,2013-09-03 05:06:00,
2013-09-03 01:11:00,64.6,60.7,29.42,SSW,203,2.2,4.3,87,0.00,,,0.00,WUHU216HW,2013-09-03 05:11:00,
2013-09-03 01:16:00,64.8,60.8,29.42,SW,225,0.4,4.0,87,0.00,,,0.00,WUHU216HW,2013-09-03 05:16:00,
2013-09-03 01:21:00,64.8,61.2,29.42,East,90,1.3,3.1,88,0.00,,,0.00,WUHU216HW,2013-09-03 05:21:00,
2013-09-03 01:26:00,64.8,60.8,29.42,ESE,113,0.0,1.6,87,0.00,,,0.00,WUHU216HW,2013-09-03 05:26:00,
2013-09-03 01:31:00,64.6,60.7,29.42,East,90,0.7,1.6,87,0.00,,,0.00,WUHU216HW,2013-09-03 05:31:00,
2013-09-03 01:36:00,64.6,60.7,29.42,East,90,0.0,1.6,87,0.00,,,0.00,WUHU216HW,2013-09-03 05:36:00,
2013-09-03 01:41:00,64.6,60.7,29.41,SE,135,0.0,1.1,87,0.00,,,0.00,WUHU216HW,2013-09-03 05:41:00,
2013-09-03 01:46:00,64.6,60.7,29.41,SW,225,1.1,1.6,87,0.00,,,0.00,WUHU216HW,2013-09-03 05:46:00,
2013-09-03 01:51:00,64.4,60.6,29.41,WSW,248,2.0,2.2,87,0.00,,,0.00,WUHU216HW,2013-09-03 05:51:00,
2013-09-03 01:56:00,64.4,60.6,29.41,SW,225,2.7,2.7,87,0.00,,,0.00,WUHU216HW,2013-09-03 05:56:00,
2013-09-03 02:01:00,64.4,60.6,29.41,SSW,203,1.6,2.7,87,0.00,,,0.00,WUHU216HW,2013-09-03 06:01:00,
2013-09-03 02:06:00,64.4,60.6,29.40,SSW,203,2.0,2.9,87,0.00,,,0.00,WUHU216HW,2013-09-03 06:06:00,
2013-09-03 02:11:00,64.4,60.6,29.41,SW,225,2.0,3.4,87,0.00,,,0.00,WUHU216HW,2013-09-03 06:11:00,
2013-09-03 02:16:00,64.4,60.6,29.40,NNW,338,0.0,3.4,87,0.00,,,0.00,WUHU216HW,2013-09-03 06:16:00,
2013-09-03 02:21:00,64.4,60.8,29.41,NE,45,1.1,2.5,88,0.00,,,0.00,WUHU216HW,2013-09-03 06:21:00,
2013-09-03 02:26:00,64.3,60.7,29.41,ESE,113,1.1,2.9,88,0.00,,,0.00,WUHU216HW,2013-09-03 06:26:00,
2013-09-03 02:31:00,64.1,60.5,29.40,ESE,113,0.0,2.9,88,0.00,,,0.00,WUHU216HW,2013-09-03 06:31:00,
2013-09-03 02:36:00,63.9,60.3,29.40,SE,135,0.0,1.8,88,0.00,,,0.00,WUHU216HW,2013-09-03 06:36:00,
2013-09-03 02:41:00,63.7,60.1,29.40,SE,135,0.0,0.0,88,0.00,,,0.00,WUHU216HW,2013-09-03 06:41:00,
2013-09-03 02:46:00,63.7,60.1,29.40,ESE,113,0.0,0.0,88,0.00,,,0.00,WUHU216HW,2013-09-03 06:46:00,
2013-09-03 02:51:00,63.5,59.9,29.40,South,180,0.2,0.4,88,0.00,,,0.00,WUHU216HW,2013-09-03 06:51:00,
2013-09-03 02:56:00,63.4,59.8,29.41,South,180,0.2,1.1,88,0.00,,,0.00,WUHU216HW,2013-09-03 06:56:00,
2013-09-03 03:01:00,63.4,59.8,29.41,South,180,0.7,1.1,88,0.00,,,0.00,WUHU216HW,2013-09-03 07:01:00,
2013-09-03 03:06:00,63.4,59.8,29.41,South,180,0.0,0.7,88,0.00,,,0.00,WUHU216HW,2013-09-03 07:06:00,
2013-09-03 03:11:00,63.5,59.9,29.41,SSW,203,0.0,0.9,88,0.00,,,0.00,WUHU216HW,2013-09-03 07:11:00,
2013-09-03 03:16:00,63.5,59.9,29.41,SE,135,0.0,0.9,88,0.00,,,0.00,WUHU216HW,2013-09-03 07:16:00,
2013-09-03 03:21:00,63.7,60.5,29.41,ESE,113,0.9,1.1,89,0.00,,,0.00,WUHU216HW,2013-09-03 07:21:00,
2013-09-03 03:26:00,63.7,60.5,29.41,SW,225,1.6,1.6,89,0.00,,,0.00,WUHU216HW,2013-09-03 07:26:00,
2013-09-03 03:31:00,63.7,60.5,29.41,ESE,113,0.7,2.2,89,0.00,,,0.00,WUHU216HW,2013-09-03 07:31:00,
2013-09-03 03:36:00,63.7,60.5,29.41,ESE,113,0.0,2.2,89,0.00,,,0.00,WUHU216HW,2013-09-03 07:36:00,
2013-09-03 03:41:00,63.7,60.5,29.40,ESE,113,0.0,1.3,89,0.00,,,0.00,WUHU216HW,2013-09-03 07:41:00,
2013-09-03 03:46:00,63.7,60.5,29.40,South,180,1.1,1.3,89,0.00,,,0.00,WUHU216HW,2013-09-03 07:46:00,
2013-09-03 03:51:00,63.5,60.3,29.40,East,90,0.0,1.1,89,0.00,,,0.00,WUHU216HW,2013-09-03 07:51:00,
2013-09-03 03:56:00,63.4,60.1,29.40,East,90,0.0,1.1,89,0.00,,,0.00,WUHU216HW,2013-09-03 07:56:00,
2013-09-03 04:01:00,63.4,60.1,29.40,SSW,203,1.1,1.1,89,0.00,,,0.00,WUHU216HW,2013-09-03 08:01:00,
2013-09-03 04:06:00,63.2,59.9,29.41,SSW,203,0.4,1.1,89,0.00,,,0.00,WUHU216HW,2013-09-03 08:06:00,
2013-09-03 04:11:00,63.2,59.9,29.41,WNW,293,0.0,1.1,89,0.00,,,0.00,WUHU216HW,2013-09-03 08:11:00,
2013-09-03 04:16:00,63.0,59.8,29.40,WNW,293,0.0,0.4,89,0.00,,,0.00,WUHU216HW,2013-09-03 08:16:00,
2013-09-03 04:21:00,63.0,59.8,29.41,SE,135,0.0,0.0,89,0.00,,,0.00,WUHU216HW,2013-09-03 08:21:00,
2013-09-03 04:26:00,63.0,59.8,29.41,ESE,113,0.0,0.0,89,0.00,,,0.00,WUHU216HW,2013-09-03 08:26:00,
2013-09-03 04:31:00,63.0,59.8,29.41,ESE,113,0.0,0.0,89,0.00,,,0.00,WUHU216HW,2013-09-03 08:31:00,
2013-09-03 04:36:00,63.0,59.8,29.41,East,90,0.0,0.0,89,0.00,,,0.00,WUHU216HW,2013-09-03 08:36:00,
2013-09-03 04:41:00,63.0,59.8,29.41,SSE,158,0.0,0.0,89,0.00,,,0.00,WUHU216HW,2013-09-03 08:41:00,
2013-09-03 04:46:00,63.2,59.9,29.42,SSW,203,0.7,0.9,89,0.00,,,0.00,WUHU216HW,2013-09-03 08:46:00,
2013-09-03 04:51:00,63.4,60.1,29.42,SSW,203,0.0,0.9,89,0.00,,,0.00,WUHU216HW,2013-09-03 08:51:00,
2013-09-03 04:56:00,63.4,60.1,29.42,South,180,0.0,0.4,89,0.00,,,0.00,WUHU216HW,2013-09-03 08:56:00,
2013-09-03 05:01:00,63.4,60.1,29.42,WNW,293,0.0,0.4,89,0.00,,,0.00,WUHU216HW,2013-09-03 09:01:00,
2013-09-03 05:06:00,63.5,60.7,29.42,SSW,203,0.0,0.4,90,0.00,,,0.00,WUHU216HW,2013-09-03 09:06:00,
2013-09-03 05:11:00,63.5,60.7,29.42,North,0,0.0,1.6,90,0.00,,,0.00,WUHU216HW,2013-09-03 09:11:00,
2013-09-03 05:16:00,63.7,60.8,29.42,NE,45,0.0,1.6,90,0.00,,,0.00,WUHU216HW,2013-09-03 09:16:00,
2013-09-03 05:21:00,63.7,60.8,29.42,ENE,68,0.0,0.0,90,0.00,,,0.00,WUHU216HW,2013-09-03 09:21:00,
2013-09-03 05:26:00,63.7,60.8,29.42,NNE,23,0.0,0.0,90,0.00,,,0.00,WUHU216HW,2013-09-03 09:26:00,
2013-09-03 05:31:00,63.9,61.0,29.43,NNE,23,0.0,0.0,90,0.00,,,0.00,WUHU216HW,2013-09-03 09:31:00,
2013-09-03 05:36:00,64.1,61.2,29.42,East,90,0.4,0.9,90,0.00,,,0.00,WUHU216HW,2013-09-03 09:36:00,
2013-09-03 05:41:00,64.1,61.2,29.42,NNE,23,1.3,1.8,90,0.00,,,0.00,WUHU216HW,2013-09-03 09:41:00,
2013-09-03 05:46:00,64.4,61.6,29.42,NW,315,0.0,4.0,90,0.00,,,0.00,WUHU216HW,2013-09-03 09:46:00,
2013-09-03 05:51:00,64.6,61.4,29.43,NNW,338,0.7,4.0,89,0.00,,,0.00,WUHU216HW,2013-09-03 09:51:00,
2013-09-03 05:56:00,64.6,61.4,29.43,North,0,2.0,3.1,89,0.00,,,0.00,WUHU216HW,2013-09-03 09:56:00,
2013-09-03 06:01:00,64.8,61.2,29.43,NW,315,1.1,3.4,88,0.00,,,0.00,WUHU216HW,2013-09-03 10:01:00,
2013-09-03 06:06:00,64.8,61.2,29.43,NNE,23,0.7,3.4,88,0.00,,,0.00,WUHU216HW,2013-09-03 10:06:00,
2013-09-03 06:11:00,65.0,61.4,29.44,ENE,68,0.0,1.6,88,0.00,,,0.00,WUHU216HW,2013-09-03 10:11:00,
2013-09-03 06:16:00,65.0,61.4,29.44,WSW,248,0.0,0.4,88,0.00,,,0.00,WUHU216HW,2013-09-03 10:16:00,
2013-09-03 06:21:00,65.0,61.4,29.44,SE,135,0.0,0.2,88,0.00,,,0.00,WUHU216HW,2013-09-03 10:21:00,
2013-09-03 06:26:00,64.8,60.8,29.44,West,270,1.8,2.5,87,0.00,,,0.00,WUHU216HW,2013-09-03 10:26:00,
2013-09-03 06:31:00,65.0,61.0,29.44,West,270,0.0,2.5,87,0.00,,,0.00,WUHU216HW,2013-09-03 10:31:00,
2013-09-03 06:36:00,65.2,61.2,29.44,ENE,68,0.9,1.8,87,0.00,,,0.00,WUHU216HW,2013-09-03 10:36:00,
2013-09-03 06:41:00,65.2,61.2,29.44,SSW,203,0.0,1.6,87,0.00,,,0.00,WUHU216HW,2013-09-03 10:41:00,
2013-09-03 06:46:00,65.2,61.2,29.44,NNW,338,1.1,2.0,87,0.00,,,0.00,WUHU216HW,2013-09-03 10:46:00,
2013-09-03 06:51:00,65.2,61.6,29.44,NNW,338,1.8,2.0,88,0.00,,,0.00,WUHU216HW,2013-09-03 10:51:00,
2013-09-03 06:56:00,65.0,61.0,29.45,North,0,0.0,1.8,87,0.00,,,0.00,WUHU216HW,2013-09-03 10:56:00,
2013-09-03 07:01:00,65.2,60.8,29.45,NNE,23,4.0,4.0,86,0.00,,,0.00,WUHU216HW,2013-09-03 11:01:00,
2013-09-03 07:06:00,65.2,60.6,29.45,NNE,23,2.5,4.0,85,0.00,,,0.00,WUHU216HW,2013-09-03 11:06:00,
2013-09-03 07:11:00,65.3,60.8,29.45,North,0,1.1,4.0,85,0.00,,,0.00,WUHU216HW,2013-09-03 11:11:00,
2013-09-03 07:16:00,65.5,61.2,29.45,NW,315,0.0,2.5,86,0.00,,,0.00,WUHU216HW,2013-09-03 11:16:00,
2013-09-03 07:21:00,65.5,61.2,29.45,NW,315,0.0,2.5,86,0.00,,,0.00,WUHU216HW,2013-09-03 11:21:00,
2013-09-03 07:26:00,65.5,60.8,29.45,North,0,2.2,2.5,85,0.00,,,0.00,WUHU216HW,2013-09-03 11:26:00,
2013-09-03 07:31:00,65.5,60.6,29.46,North,0,1.1,2.5,84,0.00,,,0.00,WUHU216HW,2013-09-03 11:31:00,
2013-09-03 07:36:00,65.3,60.8,29.46,NNW,338,1.1,2.5,85,0.00,,,0.00,WUHU216HW,2013-09-03 11:36:00,
2013-09-03 07:41:00,65.3,60.8,29.46,NW,315,0.0,1.8,85,0.00,,,0.00,WUHU216HW,2013-09-03 11:41:00,
2013-09-03 07:46:00,65.5,61.2,29.46,NE,45,0.0,1.3,86,0.00,,,0.00,WUHU216HW,2013-09-03 11:46:00,
2013-09-03 07:51:00,65.5,61.2,29.47,NE,45,0.0,0.0,86,0.00,,,0.00,WUHU216HW,2013-09-03 11:51:00,
2013-09-03 07:56:00,65.7,61.4,29.47,NE,45,0.0,0.0,86,0.00,,,0.00,WUHU216HW,2013-09-03 11:56:00,
2013-09-03 08:01:00,65.7,61.4,29.46,SSE,158,0.2,0.2,86,0.00,,,0.00,WUHU216HW,2013-09-03 12:01:00,
2013-09-03 08:06:00,65.9,61.6,29.47,SW,225,1.1,1.1,86,0.00,,,0.00,WUHU216HW,2013-09-03 12:06:00,
2013-09-03 08:11:00,65.9,61.8,29.47,WSW,248,0.9,1.3,87,0.00,,,0.00,WUHU216HW,2013-09-03 12:11:00,
2013-09-03 08:16:00,65.7,61.8,29.47,WSW,248,0.0,1.3,87,0.00,,,0.00,WUHU216HW,2013-09-03 12:16:00,
2013-09-03 08:21:00,65.7,61.8,29.47,ESE,113,0.7,0.9,87,0.00,,,0.00,WUHU216HW,2013-09-03 12:21:00,
2013-09-03 08:26:00,65.9,61.8,29.46,North,0,0.0,0.7,87,0.00,,,0.00,WUHU216HW,2013-09-03 12:26:00,
2013-09-03 08:31:00,65.9,61.8,29.47,NNE,23,0.0,1.8,87,0.00,,,0.00,WUHU216HW,2013-09-03 12:31:00,
2013-09-03 08:36:00,65.9,61.8,29.47,North,0,0.0,1.8,87,0.00,,,0.00,WUHU216HW,2013-09-03 12:36:00,
2013-09-03 08:41:00,65.9,61.8,29.47,NNW,338,0.0,1.1,87,0.00,,,0.00,WUHU216HW,2013-09-03 12:41:00,
2013-09-03 08:46:00,65.9,61.8,29.47,North,0,0.4,1.1,87,0.00,,,0.00,WUHU216HW,2013-09-03 12:46:00,
2013-09-03 08:51:00,65.9,61.8,29.47,ENE,68,0.4,1.6,87,0.00,,,0.00,WUHU216HW,2013-09-03 12:51:00,
2013-09-03 08:56:00,65.7,61.8,29.47,WSW,248,0.4,2.5,87,0.00,,,0.00,WUHU216HW,2013-09-03 12:56:00,
2013-09-03 09:01:00,65.7,61.8,29.48,SW,225,1.8,2.5,87,0.00,,,0.00,WUHU216HW,2013-09-03 13:01:00,
2013-09-03 09:06:00,65.9,61.8,29.47,ESE,113,0.0,2.2,87,0.00,,,0.00,WUHU216HW,2013-09-03 13:06:00,
2013-09-03 09:11:00,65.7,61.8,29.47,ESE,113,0.4,2.2,87,0.00,,,0.00,WUHU216HW,2013-09-03 13:11:00,
2013-09-03 09:16:00,65.9,61.8,29.47,SSW,203,0.7,0.9,87,0.00,,,0.00,WUHU216HW,2013-09-03 13:16:00,
2013-09-03 09:21:00,66.2,62.2,29.47,South,180,0.4,1.1,87,0.00,,,0.00,WUHU216HW,2013-09-03 13:21:00,
2013-09-03 09:26:00,66.2,61.9,29.47,NNE,23,1.8,2.5,86,0.00,,,0.00,WUHU216HW,2013-09-03 13:26:00,
2013-09-03 09:31:00,66.1,62.0,29.48,West,270,0.2,2.5,87,0.00,,,0.00,WUHU216HW,2013-09-03 13:31:00,
2013-09-03 09:36:00,65.9,61.6,29.47,NNW,338,0.2,2.2,86,0.00,,,0.00,WUHU216HW,2013-09-03 13:36:00,
2013-09-03 09:41:00,65.7,61.4,29.48,NNW,338,0.0,2.7,86,0.00,,,0.00,WUHU216HW,2013-09-03 13:41:00,
2013-09-03 09:46:00,65.9,61.6,29.47,NNE,23,1.1,2.7,86,0.00,,,0.00,WUHU216HW,2013-09-03 13:46:00,
2013-09-03 09:51:00,65.9,61.6,29.48,North,0,0.4,1.6,86,0.00,,,0.00,WUHU216HW,2013-09-03 13:51:00,
2013-09-03 09:56:00,65.9,61.2,29.48,SW,225,1.1,2.2,85,0.00,,,0.00,WUHU216HW,2013-09-03 13:56:00,
2013-09-03 10:01:00,66.2,60.9,29.48,ENE,68,1.8,2.5,83,0.00,,,0.00,WUHU216HW,2013-09-03 14:01:00,
2013-09-03 10:06:00,66.6,61.6,29.48,ESE,113,1.3,2.5,84,0.00,,,0.00,WUHU216HW,2013-09-03 14:06:00,
2013-09-03 10:11:00,66.6,61.3,29.48,WNW,293,1.3,2.2,83,0.00,,,0.00,WUHU216HW,2013-09-03 14:11:00,
2013-09-03 10:16:00,67.0,61.3,29.47,North,0,1.1,2.5,82,0.00,,,0.00,WUHU216HW,2013-09-03 14:16:00,
2013-09-03 10:21:00,67.1,60.8,29.48,North,0,1.1,2.5,80,0.00,,,0.00,WUHU216HW,2013-09-03 14:21:00,
2013-09-03 10:26:00,67.5,61.8,29.48,East,90,0.2,2.0,82,0.00,,,0.00,WUHU216HW,2013-09-03 14:26:00,
2013-09-03 10:31:00,68.0,62.1,29.47,ESE,113,0.4,1.1,81,0.00,,,0.00,WUHU216HW,2013-09-03 14:31:00,
2013-09-03 10:36:00,68.0,62.4,29.48,ESE,113,0.7,1.1,82,0.00,,,0.00,WUHU216HW,2013-09-03 14:36:00,
2013-09-03 10:41:00,68.0,62.4,29.47,North,0,0.7,1.1,82,0.00,,,0.00,WUHU216HW,2013-09-03 14:41:00,
2013-09-03 10:46:00,68.0,62.4,29.48,NNW,338,0.0,1.3,82,0.00,,,0.00,WUHU216HW,2013-09-03 14:46:00,
2013-09-03 10:51:00,67.7,62.0,29.48,North,0,0.0,1.3,82,0.00,,,0.00,WUHU216HW,2013-09-03 14:51:00,
2013-09-03 10:56:00,67.9,62.6,29.48,NE,45,0.0,1.1,83,0.00,,,0.00,WUHU216HW,2013-09-03 14:56:00,
2013-09-03 11:01:00,68.0,62.4,29.48,NE,45,0.0,0.0,82,0.00,,,0.00,WUHU216HW,2013-09-03 15:01:00,
2013-09-03 11:06:00,68.6,62.9,29.48,NE,45,0.0,0.0,82,0.00,,,0.00,WUHU216HW,2013-09-03 15:06:00,
2013-09-03 11:11:00,68.8,62.7,29.48,WSW,248,0.7,0.7,81,0.00,,,0.00,WUHU216HW,2013-09-03 15:11:00,
2013-09-03 11:16:00,69.1,63.1,29.48,SW,225,0.0,0.9,81,0.00,,,0.00,WUHU216HW,2013-09-03 15:16:00,
2013-09-03 11:21:00,69.7,63.2,29.48,SW,225,0.2,1.1,80,0.00,,,0.00,WUHU216HW,2013-09-03 15:21:00,
2013-09-03 11:26:00,70.2,63.7,29.48,SSW,203,1.1,2.2,80,0.00,,,0.00,WUHU216HW,2013-09-03 15:26:00,
2013-09-03 11:31:00,70.7,63.6,29.48,SSW,203,2.0,2.2,78,0.00,,,0.00,WUHU216HW,2013-09-03 15:31:00,
2013-09-03 11:36:00,70.9,62.9,29.47,NNW,338,1.1,2.2,76,0.00,,,0.00,WUHU216HW,2013-09-03 15:36:00,
2013-09-03 11:41:00,70.4,60.8,29.48,North,0,2.0,2.7,72,0.00,,,0.00,WUHU216HW,2013-09-03 15:41:00,
2013-09-03 11:46:00,70.2,61.5,29.47,North,0,2.9,3.4,74,0.00,,,0.00,WUHU216HW,2013-09-03 15:46:00,
2013-09-03 11:51:00,69.8,61.1,29.47,North,0,4.0,4.0,74,0.00,,,0.00,WUHU216HW,2013-09-03 15:51:00,
2013-09-03 11:56:00,70.0,61.3,29.47,North,0,3.6,4.0,74,0.00,,,0.00,WUHU216HW,2013-09-03 15:56:00,
2013-09-03 12:01:00,70.2,60.7,29.47,NNW,338,2.0,4.5,72,0.00,,,0.00,WUHU216HW,2013-09-03 16:01:00,
2013-09-03 12:06:00,70.0,59.3,29.46,WNW,293,1.1,5.4,69,0.00,,,0.00,WUHU216HW,2013-09-03 16:06:00,
2013-09-03 12:11:00,69.8,59.6,29.47,NNW,338,0.9,5.4,70,0.00,,,0.00,WUHU216HW,2013-09-03 16:11:00,
2013-09-03 12:16:00,70.2,59.1,29.46,East,90,0.7,2.9,68,0.00,,,0.00,WUHU216HW,2013-09-03 16:16:00,
2013-09-03 12:21:00,70.6,58.2,29.46,NNE,23,1.8,2.9,65,0.00,,,0.00,WUHU216HW,2013-09-03 16:21:00,
2013-09-03 12:26:00,71.1,60.8,29.47,South,180,0.4,2.5,70,0.00,,,0.00,WUHU216HW,2013-09-03 16:26:00,
2013-09-03 12:31:00,72.4,62.1,29.46,NNW,338,1.1,2.5,70,0.00,,,0.00,WUHU216HW,2013-09-03 16:31:00,
2013-09-03 12:36:00,72.9,62.6,29.46,WSW,248,0.9,1.1,70,0.00,,,0.00,WUHU216HW,2013-09-03 16:36:00,
2013-09-03 12:41:00,73.4,62.7,29.46,ESE,113,0.0,1.1,69,0.00,,,0.00,WUHU216HW,2013-09-03 16:41:00,
2013-09-03 12:46:00,73.8,63.1,29.46,SSE,158,0.0,1.6,69,0.00,,,0.00,WUHU216HW,2013-09-03 16:46:00,
2013-09-03 12:51:00,74.0,62.8,29.46,South,180,0.0,1.6,68,0.00,,,0.00,WUHU216HW,2013-09-03 16:51:00,
2013-09-03 12:56:00,74.3,63.1,29.46,NNW,338,0.4,1.1,68,0.00,,,0.00,WUHU216HW,2013-09-03 16:56:00,
2013-09-03 13:01:00,74.2,62.9,29.46,SE,135,0.7,1.1,68,0.00,,,0.00,WUHU216HW,2013-09-03 17:01:00,
2013-09-03 13:06:00,74.3,63.1,29.46,SE,135,0.7,1.3,68,0.00,,,0.00,WUHU216HW,2013-09-03 17:06:00,
2013-09-03 13:11:00,74.7,63.9,29.46,ESE,113,0.4,1.3,69,0.00,,,0.00,WUHU216HW,2013-09-03 17:11:00,
2013-09-03 13:16:00,75.2,64.4,29.46,South,180,1.6,1.8,69,0.00,,,0.00,WUHU216HW,2013-09-03 17:16:00,
2013-09-03 13:21:00,76.1,64.8,29.46,SE,135,0.4,1.8,68,0.00,,,0.00,WUHU216HW,2013-09-03 17:21:00,
2013-09-03 13:26:00,76.3,65.0,29.45,SE,135,0.2,1.6,68,0.00,,,0.00,WUHU216HW,2013-09-03 17:26:00,
2013-09-03 13:31:00,76.1,64.8,29.46,SE,135,0.4,0.9,68,0.00,,,0.00,WUHU216HW,2013-09-03 17:31:00,
2013-09-03 13:36:00,76.7,64.0,29.45,East,90,2.5,2.7,65,0.00,,,0.00,WUHU216HW,2013-09-03 17:36:00,
2013-09-03 13:41:00,76.7,64.4,29.45,SE,135,1.8,2.7,66,0.00,,,0.00,WUHU216HW,2013-09-03 17:41:00,
2013-09-03 13:46:00,76.7,64.4,29.45,WSW,248,1.1,2.5,66,0.00,,,0.00,WUHU216HW,2013-09-03 17:46:00,
2013-09-03 13:52:00,76.3,63.6,29.45,SW,225,1.6,2.2,65,0.00,,,0.00,WUHU216HW,2013-09-03 17:52:00,
2013-09-03 13:57:00,75.6,62.6,29.45,WSW,248,2.5,7.4,64,0.00,,,0.00,WUHU216HW,2013-09-03 17:57:00,
2013-09-03 14:02:00,75.2,62.2,29.45,West,270,1.3,7.4,64,0.00,,,0.00,WUHU216HW,2013-09-03 18:02:00,
2013-09-03 14:07:00,75.4,58.6,29.45,WNW,293,7.8,7.8,56,0.00,,,0.00,WUHU216HW,2013-09-03 18:07:00,
2013-09-03 14:12:00,75.2,58.0,29.44,North,0,5.4,9.2,55,0.00,,,0.00,WUHU216HW,2013-09-03 18:12:00,
2013-09-03 14:17:00,74.9,57.6,29.44,NNW,338,4.7,9.2,55,0.00,,,0.00,WUHU216HW,2013-09-03 18:17:00,
2013-09-03 14:22:00,74.5,57.8,29.44,NNW,338,2.7,6.5,56,0.00,,,0.00,WUHU216HW,2013-09-03 18:22:00,
2013-09-03 14:27:00,74.5,57.8,29.44,NNW,338,6.3,6.5,56,0.00,,,0.00,WUHU216HW,2013-09-03 18:27:00,
2013-09-03 14:32:00,74.9,58.2,29.44,NW,315,4.0,6.3,56,0.00,,,0.00,WUHU216HW,2013-09-03 18:32:00,
2013-09-03 14:37:00,74.5,56.7,29.44,WSW,248,5.8,6.3,54,0.00,,,0.00,WUHU216HW,2013-09-03 18:37:00,
2013-09-03 14:42:00,74.2,55.4,29.44,WSW,248,4.3,9.2,52,0.00,,,0.00,WUHU216HW,2013-09-03 18:42:00,
2013-09-03 14:47:00,74.5,56.7,29.44,North,0,2.5,9.2,54,0.00,,,0.00,WUHU216HW,2013-09-03 18:47:00,
2013-09-03 14:52:00,74.2,55.4,29.44,NNW,338,1.6,9.8,52,0.00,,,0.00,WUHU216HW,2013-09-03 18:52:00,
2013-09-03 14:57:00,74.3,55.5,29.44,West,270,5.1,9.8,52,0.00,,,0.00,WUHU216HW,2013-09-03 18:57:00,
2013-09-03 15:02:00,74.9,56.1,29.44,WNW,293,5.4,9.4,52,0.00,,,0.00,WUHU216HW,2013-09-03 19:02:00,
2013-09-03 15:07:00,75.2,55.4,29.44,SW,225,9.2,10.1,50,0.00,,,0.00,WUHU216HW,2013-09-03 19:07:00,
2013-09-03 15:12:00,75.6,56.3,29.44,West,270,6.9,10.1,51,0.00,,,0.00,WUHU216HW,2013-09-03 19:12:00,
2013-09-03 15:17:00,75.8,56.4,29.44,WSW,248,11.4,11.4,51,0.00,,,0.00,WUHU216HW,2013-09-03 19:17:00,
2013-09-03 15:22:00,74.9,55.1,29.44,WNW,293,4.5,11.4,50,0.00,,,0.00,WUHU216HW,2013-09-03 19:22:00,
2013-09-03 15:27:00,73.6,53.8,29.44,West,270,6.3,8.3,50,0.00,,,0.00,WUHU216HW,2013-09-03 19:27:00,
2013-09-03 15:32:00,73.4,54.6,29.44,WNW,293,4.0,8.3,52,0.00,,,0.00,WUHU216HW,2013-09-03 19:32:00,
2013-09-03 15:37:00,73.3,54.5,29.44,North,0,3.6,7.8,52,0.00,,,0.00,WUHU216HW,2013-09-03 19:37:00,
2013-09-03 15:42:00,73.3,54.5,29.45,West,270,5.4,6.3,52,0.00,,,0.00,WUHU216HW,2013-09-03 19:42:00,
2013-09-03 15:47:00,73.1,55.4,29.44,WSW,248,7.8,9.8,54,0.00,,,0.00,WUHU216HW,2013-09-03 19:47:00,
2013-09-03 15:52:00,73.4,55.2,29.44,WSW,248,3.6,9.8,53,0.00,,,0.00,WUHU216HW,2013-09-03 19:52:00,
2013-09-03 15:57:00,74.2,56.3,29.45,WNW,293,5.6,9.2,54,0.00,,,0.00,WUHU216HW,2013-09-03 19:57:00,
2013-09-03 16:02:00,74.3,56.5,29.45,NW,315,5.4,6.3,54,0.00,,,0.00,WUHU216HW,2013-09-03 20:02:00,
2013-09-03 16:07:00,73.8,55.5,29.45,West,270,9.6,9.6,53,0.00,,,0.00,WUHU216HW,2013-09-03 20:07:00,
2013-09-03 16:12:00,72.9,55.2,29.45,NNW,338,4.3,9.6,54,0.00,,,0.00,WUHU216HW,2013-09-03 20:12:00,
2013-09-03 16:17:00,72.4,55.2,29.45,NW,315,6.3,9.6,55,0.00,,,0.00,WUHU216HW,2013-09-03 20:17:00,
2013-09-03 16:22:00,72.2,56.1,29.45,SW,225,4.9,11.0,57,0.00,,,0.00,WUHU216HW,2013-09-03 20:22:00,
2013-09-03 16:27:00,72.4,55.7,29.46,WNW,293,4.7,11.4,56,0.00,,,0.00,WUHU216HW,2013-09-03 20:27:00,
2013-09-03 16:32:00,72.4,56.2,29.45,NW,315,4.7,11.4,57,0.00,,,0.00,WUHU216HW,2013-09-03 20:32:00,
2013-09-03 16:37:00,73.1,57.3,29.46,NW,315,7.8,9.2,58,0.00,,,0.00,WUHU216HW,2013-09-03 20:37:00,
2013-09-03 16:42:00,73.3,56.0,29.46,West,270,8.5,11.6,55,0.00,,,0.00,WUHU216HW,2013-09-03 20:42:00,
2013-09-03 16:47:00,73.4,56.7,29.46,West,270,6.5,11.6,56,0.00,,,0.00,WUHU216HW,2013-09-03 20:47:00,
2013-09-03 16:52:00,73.4,56.2,29.46,WSW,248,6.3,9.8,55,0.00,,,0.00,WUHU216HW,2013-09-03 20:52:00,
2013-09-03 16:57:00,73.1,56.3,29.46,WNW,293,6.3,7.6,56,0.00,,,0.00,WUHU216HW,2013-09-03 20:57:00,
2013-09-03 17:02:00,72.5,55.9,29.46,NNW,338,4.5,12.1,56,0.00,,,0.00,WUHU216HW,2013-09-03 21:02:00,
2013-09-03 17:07:00,71.8,55.7,29.46,NW,315,2.9,12.1,57,0.00,,,0.00,WUHU216HW,2013-09-03 21:07:00,
2013-09-03 17:12:00,71.1,55.5,29.46,West,270,7.6,8.3,58,0.00,,,0.00,WUHU216HW,2013-09-03 21:12:00,
2013-09-03 17:17:00,70.7,55.7,29.47,WNW,293,3.6,8.3,59,0.00,,,0.00,WUHU216HW,2013-09-03 21:17:00,
2013-09-03 17:22:00,70.2,54.7,29.47,WSW,248,4.3,7.6,58,0.00,,,0.00,WUHU216HW,2013-09-03 21:22:00,
2013-09-03 17:27:00,70.2,55.3,29.47,NW,315,3.8,7.4,59,0.00,,,0.00,WUHU216HW,2013-09-03 21:27:00,
2013-09-03 17:32:00,70.2,55.8,29.47,WSW,248,3.1,7.4,60,0.00,,,0.00,WUHU216HW,2013-09-03 21:32:00,
2013-09-03 17:37:00,70.4,55.9,29.47,NW,315,1.8,5.8,60,0.00,,,0.00,WUHU216HW,2013-09-03 21:37:00,
2013-09-03 17:42:00,70.2,55.8,29.48,NW,315,2.0,6.7,60,0.00,,,0.00,WUHU216HW,2013-09-03 21:42:00,
2013-09-03 17:47:00,70.0,55.6,29.48,NW,315,4.5,6.7,60,0.00,,,0.00,WUHU216HW,2013-09-03 21:47:00,
2013-09-03 17:52:00,69.8,55.9,29.48,WNW,293,2.0,4.5,61,0.00,,,0.00,WUHU216HW,2013-09-03 21:52:00,
2013-09-03 17:57:00,69.7,55.7,29.48,NNW,338,1.8,4.5,61,0.00,,,0.00,WUHU216HW,2013-09-03 21:57:00,
2013-09-03 18:02:00,69.3,55.4,29.48,NW,315,2.5,6.7,61,0.00,,,0.00,WUHU216HW,2013-09-03 22:02:00,
2013-09-03 18:07:00,69.1,55.2,29.48,WNW,293,5.4,6.7,61,0.00,,,0.00,WUHU216HW,2013-09-03 22:07:00,
2013-09-03 18:12:00,68.8,54.8,29.48,NNW,338,2.9,6.0,61,0.00,,,0.00,WUHU216HW,2013-09-03 22:12:00,
2013-09-03 18:17:00,68.6,55.0,29.48,NNW,338,3.1,5.8,62,0.00,,,0.00,WUHU216HW,2013-09-03 22:17:00,
2013-09-03 18:22:00,68.4,55.3,29.48,WSW,248,2.9,4.0,63,0.00,,,0.00,WUHU216HW,2013-09-03 22:22:00,
2013-09-03 18:27:00,68.2,55.1,29.48,WNW,293,2.9,4.0,63,0.00,,,0.00,WUHU216HW,2013-09-03 22:27:00,
2013-09-03 18:32:00,68.0,54.9,29.48,WNW,293,1.6,4.9,63,0.00,,,0.00,WUHU216HW,2013-09-03 22:32:00,
2013-09-03 18:37:00,68.0,55.4,29.48,WNW,293,3.4,4.9,64,0.00,,,0.00,WUHU216HW,2013-09-03 22:37:00,
2013-09-03 18:42:00,67.9,55.6,29.48,North,0,1.1,4.7,65,0.00,,,0.00,WUHU216HW,2013-09-03 22:42:00,
2013-09-03 18:47:00,67.9,55.6,29.48,NNE,23,2.7,4.7,65,0.00,,,0.00,WUHU216HW,2013-09-03 22:47:00,
2013-09-03 18:52:00,67.7,55.4,29.48,West,270,3.6,4.0,65,0.00,,,0.00,WUHU216HW,2013-09-03 22:52:00,
2013-09-03 18:57:00,67.3,55.1,29.48,NW,315,2.5,4.5,65,0.00,,,0.00,WUHU216HW,2013-09-03 22:57:00,
2013-09-03 19:02:00,67.3,55.1,29.48,NW,315,2.7,4.5,65,0.00,,,0.00,WUHU216HW,2013-09-03 23:02:00,
2013-09-03 19:07:00,67.1,54.9,29.48,WNW,293,2.2,4.3,65,0.00,,,0.00,WUHU216HW,2013-09-03 23:07:00,
2013-09-03 19:12:00,67.0,54.8,29.49,WNW,293,0.0,2.9,65,0.00,,,0.00,WUHU216HW,2013-09-03 23:12:00,
2013-09-03 19:17:00,67.0,55.2,29.49,NE,45,0.4,2.2,66,0.00,,,0.00,WUHU216HW,2013-09-03 23:17:00,
2013-09-03 19:22:00,66.8,55.4,29.49,North,0,1.1,2.7,67,0.00,,,0.00,WUHU216HW,2013-09-03 23:22:00,
2013-09-03 19:27:00,66.6,55.7,29.49,East,90,2.2,2.7,68,0.00,,,0.00,WUHU216HW,2013-09-03 23:27:00,
2013-09-03 19:32:00,66.4,55.9,29.50,North,0,1.6,4.0,69,0.00,,,0.00,WUHU216HW,2013-09-03 23:32:00,
2013-09-03 19:37:00,66.1,55.6,29.50,North,0,3.6,6.5,69,0.00,,,0.00,WUHU216HW,2013-09-03 23:37:00,
2013-09-03 19:42:00,65.9,55.8,29.50,NNW,338,1.8,6.5,70,0.00,,,0.00,WUHU216HW,2013-09-03 23:42:00,
2013-09-03 19:47:00,65.7,55.7,29.50,NW,315,0.4,3.6,70,0.00,,,0.00,WUHU216HW,2013-09-03 23:47:00,
2013-09-03 19:52:00,65.5,55.5,29.50,NW,315,0.9,1.8,70,0.00,,,0.00,WUHU216HW,2013-09-03 23:52:00,
2013-09-03 19:57:00,65.3,55.4,29.51,NNW,338,0.0,1.3,70,0.00,,,0.00,WUHU216HW,2013-09-03 23:57:00,
2013-09-03 20:02:00,65.3,55.4,29.51,NNE,23,0.0,0.9,70,0.00,,,0.00,WUHU216HW,2013-09-04 00:02:00,
2013-09-03 20:07:00,65.2,55.5,29.51,WNW,293,0.0,0.9,71,0.00,,,0.00,WUHU216HW,2013-09-04 00:07:00,
2013-09-03 20:12:00,65.2,55.5,29.51,SSW,203,0.0,1.1,71,0.00,,,0.00,WUHU216HW,2013-09-04 00:12:00,
2013-09-03 20:17:00,64.8,55.6,29.52,NNW,338,0.0,1.1,72,0.00,,,0.00,WUHU216HW,2013-09-04 00:17:00,
2013-09-03 20:22:00,64.6,55.5,29.52,WSW,248,1.1,2.0,72,0.00,,,0.00,WUHU216HW,2013-09-04 00:22:00,
2013-09-03 20:27:00,64.4,55.3,29.52,NNW,338,0.0,2.0,72,0.00,,,0.00,WUHU216HW,2013-09-04 00:27:00,
2013-09-03 20:32:00,64.1,55.3,29.52,NW,315,0.4,1.1,73,0.00,,,0.00,WUHU216HW,2013-09-04 00:32:00,
2013-09-03 20:37:00,64.1,55.3,29.53,NNW,338,0.7,2.5,73,0.00,,,0.00,WUHU216HW,2013-09-04 00:37:00,
2013-09-03 20:42:00,63.9,55.4,29.52,NNW,338,0.0,2.5,74,0.00,,,0.00,WUHU216HW,2013-09-04 00:42:00,
2013-09-03 20:47:00,63.7,55.3,29.52,North,0,0.0,1.1,74,0.00,,,0.00,WUHU216HW,2013-09-04 00:47:00,
2013-09-03 20:52:00,63.4,54.9,29.52,NW,315,1.8,1.8,74,0.00,,,0.00,WUHU216HW,2013-09-04 00:52:00,
2013-09-03 20:57:00,63.0,54.5,29.52,WNW,293,0.9,1.8,74,0.00,,,0.00,WUHU216HW,2013-09-04 00:57:00,
2013-09-03 21:02:00,62.8,54.7,29.52,NW,315,0.4,1.8,75,0.00,,,0.00,WUHU216HW,2013-09-04 01:02:00,
2013-09-03 21:07:00,62.6,54.2,29.52,North,0,0.4,1.3,74,0.00,,,0.00,WUHU216HW,2013-09-04 01:07:00,
2013-09-03 21:12:00,62.5,54.0,29.52,North,0,0.0,1.3,74,0.00,,,0.00,WUHU216HW,2013-09-04 01:12:00,
2013-09-03 21:17:00,62.5,54.4,29.53,North,0,2.5,2.5,75,0.00,,,0.00,WUHU216HW,2013-09-04 01:17:00,
2013-09-03 21:22:00,62.5,54.4,29.53,NNW,338,0.9,3.8,75,0.00,,,0.00,WUHU216HW,2013-09-04 01:22:00,
2013-09-03 21:27:00,62.5,54.7,29.53,North,0,3.4,4.5,76,0.00,,,0.00,WUHU216HW,2013-09-04 01:27:00,
2013-09-03 21:32:00,62.5,54.7,29.52,North,0,2.0,6.5,76,0.00,,,0.00,WUHU216HW,2013-09-04 01:32:00,
2013-09-03 21:37:00,62.3,54.2,29.52,North,0,0.2,6.5,75,0.00,,,0.00,WUHU216HW,2013-09-04 01:37:00,
2013-09-03 21:42:00,62.3,54.5,29.52,North,0,2.5,5.1,76,0.00,,,0.00,WUHU216HW,2013-09-04 01:42:00,
2013-09-03 21:47:00,62.3,54.5,29.52,North,0,1.3,4.9,76,0.00,,,0.00,WUHU216HW,2013-09-04 01:47:00,
2013-09-03 21:52:00,62.3,54.2,29.52,SW,225,0.0,4.9,75,0.00,,,0.00,WUHU216HW,2013-09-04 01:52:00,
2013-09-03 21:57:00,62.1,54.5,29.52,North,0,1.8,2.2,76,0.00,,,0.00,WUHU216HW,2013-09-04 01:57:00,
2013-09-03 22:02:00,62.1,54.1,29.52,SW,225,2.9,2.9,75,0.00,,,0.00,WUHU216HW,2013-09-04 02:02:00,
2013-09-03 22:07:00,61.9,53.9,29.52,WSW,248,0.9,3.1,75,0.00,,,0.00,WUHU216HW,2013-09-04 02:07:00,
2013-09-03 22:12:00,61.7,54.1,29.52,WSW,248,0.4,3.1,76,0.00,,,0.00,WUHU216HW,2013-09-04 02:12:00,
2013-09-03 22:17:00,61.6,53.9,29.52,SSW,203,0.9,2.5,76,0.00,,,0.00,WUHU216HW,2013-09-04 02:17:00,
2013-09-03 22:22:00,61.4,53.7,29.52,SW,225,0.0,2.5,76,0.00,,,0.00,WUHU216HW,2013-09-04 02:22:00,
2013-09-03 22:27:00,61.2,53.7,29.53,WSW,248,0.0,1.8,76,0.00,,,0.00,WUHU216HW,2013-09-04 02:27:00,
2013-09-03 22:32:00,61.0,53.8,29.53,SW,225,0.0,1.1,77,0.00,,,0.00,WUHU216HW,2013-09-04 02:32:00,
2013-09-03 22:37:00,60.8,53.6,29.53,West,270,0.0,0.7,77,0.00,,,0.00,WUHU216HW,2013-09-04 02:37:00,
2013-09-03 22:42:00,60.7,53.5,29.53,SSW,203,0.2,1.3,77,0.00,,,0.00,WUHU216HW,2013-09-04 02:42:00,
2013-09-03 22:47:00,60.7,53.8,29.53,SSW,203,1.1,1.3,78,0.00,,,0.00,WUHU216HW,2013-09-04 02:47:00,
2013-09-03 22:52:00,60.5,53.6,29.53,WSW,248,0.0,1.6,78,0.00,,,0.00,WUHU216HW,2013-09-04 02:52:00,
2013-09-03 22:57:00,60.8,54.0,29.53,North,0,0.0,1.8,78,0.00,,,0.00,WUHU216HW,2013-09-04 02:57:00,
2013-09-03 23:02:00,61.0,54.2,29.53,NNW,338,0.2,2.9,78,0.00,,,0.00,WUHU216HW,2013-09-04 03:02:00,
2013-09-03 23:07:00,61.2,54.4,29.53,NNE,23,0.0,2.9,78,0.00,,,0.00,WUHU216HW,2013-09-04 03:07:00,
2013-09-03 23:12:00,61.2,54.0,29.53,ENE,68,0.0,1.1,77,0.00,,,0.00,WUHU216HW,2013-09-04 03:12:00,
2013-09-03 23:17:00,61.2,54.0,29.53,SSE,158,0.0,0.2,77,0.00,,,0.00,WUHU216HW,2013-09-04 03:17:00,
2013-09-03 23:22:00,60.8,54.0,29.53,ESE,113,0.4,0.9,78,0.00,,,0.00,WUHU216HW,2013-09-04 03:22:00,
2013-09-03 23:27:00,60.8,54.0,29.53,WSW,248,1.1,1.3,78,0.00,,,0.00,WUHU216HW,2013-09-04 03:27:00,
2013-09-03 23:32:00,61.0,54.6,29.53,WNW,293,1.8,4.9,79,0.00,,,0.00,WUHU216HW,2013-09-04 03:32:00,
2013-09-03 23:37:00,61.2,54.4,29.53,SSW,203,0.4,4.9,78,0.00,,,0.00,WUHU216HW,2013-09-04 03:37:00,
2013-09-03 23:42:00,61.2,54.4,29.53,South,180,1.1,1.8,78,0.00,,,0.00,WUHU216HW,2013-09-04 03:42:00,
2013-09-03 23:47:00,61.4,54.8,29.53,SE,135,0.2,1.8,79,0.00,,,0.00,WUHU216HW,2013-09-04 03:47:00,
2013-09-03 23:52:00,61.4,54.5,29.53,SSW,203,0.0,1.1,78,0.00,,,0.00,WUHU216HW,2013-09-04 03:52:00,
2013-09-03 23:57:00,61.6,55.0,29.53,North,0,1.8,1.8,79,0.00,,,0.00,WUHU216HW,2013-09-04 03:57:00,